Location: Bats
(43.6587°N, 0.4584°W)
Time: 04:02:01
(UTC+00:00)

Cosmos 1741 Rocket - Visible Passes

Search period start: 21 April 2026 00:00
Search period end: 01 May 2026 00:00
Orbit: 757 x 778 km, 74.0° (Epoch: 20 April)

Date Brightness Start Highest point End Pass type
(mag) Time Alt. Az. Time Alt. Az. Time Alt. Az.
21 Apr 6.3 01:28:51 10° NW 01:29:51 14° NW 01:29:51 14° NW visible
21 Apr 5.7 23:09:14 10° N 23:12:53 27° NE 23:12:53 27° NE visible
22 Apr 5.9 00:51:02 10° NW 00:53:07 22° NW 00:53:07 22° NW visible
22 Apr 6.0 22:32:32 10° N 22:36:11 19° NE 22:36:11 19° NE visible
23 Apr 5.5 00:13:32 10° NNW 00:16:25 33° NNW 00:16:25 33° NNW visible
23 Apr 6.4 21:56:29 10° NNE 21:58:29 12° NE 21:59:30 11° ENE visible
23 Apr 5.1 23:36:13 10° NNW 23:39:43 42° N 23:39:43 42° N visible
24 Apr 5.1 22:59:05 10° N 23:03:04 39° NNE 23:03:04 39° NNE visible
25 Apr 6.1 00:41:40 10° NW 00:43:18 17° WNW 00:43:18 17° WNW visible
25 Apr 5.4 22:22:08 10° N 22:26:25 27° NE 22:26:25 27° NE visible
26 Apr 5.6 00:03:53 10° NNW 00:06:40 28° NW 00:06:40 28° NW visible
26 Apr 5.9 21:45:28 10° N 21:49:03 18° NE 21:49:48 17° ENE visible
26 Apr 5.0 23:26:23 10° NNW 23:30:02 44° NW 23:30:02 44° NW visible
27 Apr 6.3 21:09:33 10° NNE 21:11:19 11° NE 21:13:04 10° ENE visible
27 Apr 4.5 22:49:05 10° NNW 22:53:26 56° NNE 22:53:26 56° NNE visible
28 Apr 6.4 00:32:47 10° WNW 00:33:40 12° WNW 00:33:40 12° WNW visible
28 Apr 4.8 22:11:58 10° N 22:16:50 42° ENE 22:16:50 42° ENE visible
28 Apr 5.9 23:54:28 10° NW 23:57:05 22° WNW 23:57:05 22° WNW visible
29 Apr 5.3 21:35:03 10° N 21:39:31 27° ENE 21:40:16 26° ENE visible
29 Apr 5.1 23:16:43 10° NNW 23:20:31 38° WNW 23:20:31 38° WNW visible
30 Apr 5.9 20:58:25 10° NNE 21:01:53 17° NE 21:03:44 15° ENE visible
30 Apr 4.2 22:39:15 10° NNW 22:43:58 67° WNW 22:43:58 67° WNW visible
